DLH1AC EDDN-EDDC

Flight info

Callsign DLH1AC
Flight time N/A
Altitude 17000
Route ERETO1G/28 ERETO Z715 ABKIS Q240 DRN
Aircraft A20N/M-SDE2E3FGHIRWXY/LB1

Departure

Time 2026-05-05 20:13
Airport Nuremberg Airport (EDDN)

Arrival

Time N/A
Airport Dresden Airport (EDDC)
Time Latitude Longitude Altitude Speed Heading
2026-05-05 19:44 49.49541 11.07585 1042 ft 0 kts 188°
2026-05-05 20:02 49.49544 11.07586 1026 ft 3 kts 188°
2026-05-05 20:02 49.49566 11.07590 1026 ft 4 kts 179°
2026-05-05 20:02 49.49579 11.07589 1026 ft 4 kts 169°
2026-05-05 20:03 49.49601 11.07575 1025 ft 4 kts 125°
2026-05-05 20:03 49.49606 11.07561 1024 ft 0 kts 98°
2026-05-05 20:08 49.49603 11.07589 1024 ft 2 kts 98°
2026-05-05 20:08 49.49603 11.07592 1025 ft 0 kts 98°
2026-05-05 20:09 49.49602 11.07599 1025 ft 7 kts 98°
2026-05-05 20:09 49.49585 11.07773 1025 ft 20 kts 98°
2026-05-05 20:09 49.49558 11.08065 1025 ft 23 kts 98°
2026-05-05 20:10 49.49541 11.08260 1028 ft 12 kts 97°
2026-05-05 20:10 49.49580 11.08386 1032 ft 14 kts
2026-05-05 20:10 49.49607 11.08440 1034 ft 15 kts 77°
2026-05-05 20:10 49.49588 11.08718 1037 ft 36 kts 100°
2026-05-05 20:11 49.49547 11.09108 1041 ft 31 kts 95°
2026-05-05 20:11 49.49560 11.09430 1040 ft 33 kts 42°
2026-05-05 20:11 49.49668 11.09567 1052 ft 11 kts 19°
2026-05-05 20:11 49.49713 11.09487 1051 ft 11 kts 246°
2026-05-05 20:12 49.49737 11.09220 1047 ft 49 kts 278°
2026-05-05 20:12 49.49807 11.08331 1034 ft 115 kts 277°
2026-05-05 20:12 49.49964 11.06846 1052 ft 160 kts 277°
2026-05-05 20:12 49.50050 11.05109 1523 ft 168 kts 274°
2026-05-05 20:13 49.50190 11.03336 2158 ft 166 kts 282°
2026-05-05 20:13 49.50381 11.01585 2775 ft 167 kts 281°
2026-05-05 20:13 49.50587 10.99732 3155 ft 185 kts 280°
2026-05-05 20:13 49.50799 10.97768 3315 ft 188 kts 280°
2026-05-05 20:14 49.51012 10.95742 3453 ft 200 kts 279°
2026-05-05 20:14 49.51462 10.93607 3703 ft 223 kts 307°
2026-05-05 20:14 49.52770 10.92236 3994 ft 243 kts 346°
2026-05-05 20:14 49.54518 10.91902 4404 ft 265 kts
2026-05-05 20:15 49.56401 10.92001 5074 ft 276 kts
2026-05-05 20:15 49.58328 10.92227 5929 ft 280 kts
2026-05-05 20:15 49.60288 10.92449 6596 ft 285 kts
2026-05-05 20:15 49.62273 10.92625 6804 ft 286 kts
2026-05-05 20:16 49.64269 10.92747 7038 ft 291 kts
2026-05-05 20:16 49.66266 10.92829 7905 ft 291 kts
2026-05-05 20:16 49.68299 10.93021 8744 ft 296 kts
2026-05-05 20:16 49.70295 10.93896 9540 ft 302 kts 23°
2026-05-05 20:17 49.72132 10.95513 10209 ft 310 kts 37°
2026-05-05 20:17 49.73851 10.97722 10443 ft 333 kts 41°
2026-05-05 20:17 49.75651 11.00118 10853 ft 348 kts 41°
2026-05-05 20:17 49.77498 11.02585 11518 ft 353 kts 41°
2026-05-05 20:18 49.79368 11.05079 12242 ft 357 kts 41°
2026-05-05 20:18 49.81264 11.07598 12964 ft 361 kts 41°
2026-05-05 20:18 49.83103 11.10266 13676 ft 365 kts 49°
2026-05-05 20:18 49.84610 11.13434 14317 ft 367 kts 61°
2026-05-05 20:19 49.85767 11.16977 14903 ft 370 kts 66°
2026-05-05 20:19 49.86885 11.20597 15489 ft 374 kts 66°
2026-05-05 20:19 49.88010 11.24253 15992 ft 378 kts 66°
2026-05-05 20:19 49.89147 11.27957 16521 ft 383 kts 66°
2026-05-05 20:20 49.90024 11.30810 16780 ft 385 kts 66°
2026-05-05 20:20 49.90741 11.33138 16842 ft 386 kts 66°
2026-05-05 20:21 49.91888 11.36861 16874 ft 380 kts 66°
2026-05-05 20:21 49.93154 11.40388 16881 ft 380 kts 56°
2026-05-05 20:21 49.94838 11.43543 16873 ft 380 kts 45°
2026-05-05 20:21 49.96711 11.46440 16874 ft 380 kts 45°
2026-05-05 20:22 49.98580 11.49347 16882 ft 380 kts 45°
2026-05-05 20:22 50.00442 11.52260 16876 ft 380 kts 45°
2026-05-05 20:22 50.02301 11.55180 16881 ft 380 kts 45°
2026-05-05 20:22 50.04160 11.58107 16885 ft 380 kts 45°
2026-05-05 20:23 50.06016 11.61034 16882 ft 380 kts 46°
2026-05-05 20:23 50.07871 11.63969 16886 ft 381 kts 46°
2026-05-05 20:23 50.09707 11.66950 16889 ft 381 kts 47°
2026-05-05 20:23 50.11497 11.69924 16881 ft 371 kts 47°
2026-05-05 20:24 50.13238 11.72852 16893 ft 370 kts 47°
2026-05-05 20:24 50.14973 11.75780 16885 ft 364 kts 47°
2026-05-05 20:24 50.16685 11.78662 16891 ft 361 kts 47°
2026-05-05 20:24 50.18408 11.81607 16892 ft 378 kts 51°
2026-05-05 20:25 50.19950 11.85093 16895 ft 406 kts 59°
2026-05-05 20:25 50.21443 11.88915 16885 ft 409 kts 59°
2026-05-05 20:25 50.22895 11.92618 16887 ft 391 kts 59°
2026-05-05 20:25 50.24301 11.96198 16893 ft 383 kts 59°
2026-05-05 20:26 50.25691 11.99740 16896 ft 381 kts 59°
2026-05-05 20:26 50.27089 12.03259 16888 ft 382 kts 58°
2026-05-05 20:26 50.27817 12.05009 16880 ft 382 kts 57°
2026-05-05 20:26 50.27998 12.05434 16883 ft 382 kts 57°
2026-05-05 20:27 50.29496 12.08864 16894 ft 382 kts 56°
2026-05-05 20:27 50.31019 12.12262 16887 ft 382 kts 55°
2026-05-05 20:27 50.32551 12.15659 16886 ft 382 kts 55°
2026-05-05 20:27 50.34074 12.19060 16879 ft 382 kts 56°
2026-05-05 20:28 50.35403 12.22642 16881 ft 381 kts 63°
2026-05-05 20:28 50.36646 12.26314 16876 ft 381 kts 63°
2026-05-05 20:28 50.37881 12.29985 16883 ft 381 kts 63°
2026-05-05 20:28 50.39112 12.33659 16879 ft 381 kts 63°
2026-05-05 20:29 50.40346 12.37344 16883 ft 381 kts 63°
2026-05-05 20:29 50.41581 12.41028 16887 ft 381 kts 63°
2026-05-05 20:29 50.42812 12.44699 16886 ft 381 kts 63°
2026-05-05 20:29 50.44047 12.48385 16883 ft 381 kts 63°
2026-05-05 20:30 50.45277 12.52076 16885 ft 382 kts 63°
2026-05-05 20:30 50.46504 12.55769 16885 ft 381 kts 63°
2026-05-05 20:30 50.47729 12.59461 16888 ft 381 kts 63°
2026-05-05 20:30 50.48953 12.63148 16885 ft 381 kts 63°
2026-05-05 20:31 50.50181 12.66841 16881 ft 381 kts 63°
2026-05-05 20:31 50.51391 12.70487 16823 ft 371 kts 63°
2026-05-05 20:31 50.52569 12.74046 16566 ft 364 kts 63°
2026-05-05 20:31 50.53726 12.77547 16314 ft 358 kts 63°
2026-05-05 20:32 50.54865 12.80997 16060 ft 355 kts 63°
2026-05-05 20:32 50.55998 12.84435 15810 ft 353 kts 63°
2026-05-05 20:32 50.57121 12.87854 15558 ft 351 kts 63°
2026-05-05 20:32 50.58239 12.91263 15317 ft 350 kts 63°
2026-05-05 20:33 50.59351 12.94658 15064 ft 348 kts 63°
2026-05-05 20:33 50.60444 12.97990 14825 ft 346 kts 63°
2026-05-05 20:33 50.61540 13.01332 14529 ft 342 kts 63°
2026-05-05 20:33 50.62698 13.04600 14135 ft 342 kts 56°
2026-05-05 20:34 50.64225 13.07465 13730 ft 342 kts 43°
2026-05-05 20:34 50.66006 13.09949 13291 ft 342 kts 40°
2026-05-05 20:34 50.67789 13.12416 12873 ft 340 kts 40°
2026-05-05 20:34 50.69565 13.14879 12462 ft 339 kts 41°
2026-05-05 20:35 50.71328 13.17331 12045 ft 338 kts 41°
2026-05-05 20:35 50.73085 13.19782 11616 ft 336 kts 41°
2026-05-05 20:35 50.74834 13.22229 11193 ft 335 kts 41°
2026-05-05 20:35 50.76576 13.24666 10761 ft 334 kts 41°
2026-05-05 20:36 50.78315 13.27100 10330 ft 333 kts 41°
2026-05-05 20:36 50.80046 13.29528 9951 ft 331 kts 41°
2026-05-05 20:36 50.81734 13.31900 9837 ft 319 kts 41°
2026-05-05 20:36 50.83368 13.34192 9634 ft 310 kts 41°
2026-05-05 20:37 50.84988 13.36466 8997 ft 316 kts 41°
2026-05-05 20:37 50.86667 13.38829 8135 ft 329 kts 41°
2026-05-05 20:37 50.88388 13.41255 7451 ft 329 kts 42°
2026-05-05 20:37 50.90067 13.43624 6863 ft 318 kts 42°
2026-05-05 20:38 50.91694 13.45921 6297 ft 311 kts 42°
2026-05-05 20:38 50.93303 13.48193 5829 ft 310 kts 42°
2026-05-05 20:38 50.94915 13.50472 5272 ft 311 kts 43°
2026-05-05 20:38 50.96504 13.52719 5058 ft 299 kts 43°
2026-05-05 20:39 50.98010 13.54852 5052 ft 281 kts 42°
2026-05-05 20:39 50.99391 13.56805 5056 ft 250 kts 43°
2026-05-05 20:39 51.00650 13.58587 5054 ft 238 kts 42°
2026-05-05 20:39 51.01861 13.60307 5060 ft 229 kts 43°
2026-05-05 20:40 51.02976 13.61917 5060 ft 215 kts 43°
2026-05-05 20:40 51.04069 13.63507 5052 ft 212 kts 43°
2026-05-05 20:40 51.05151 13.65085 5057 ft 210 kts 44°
2026-05-05 20:40 51.06168 13.66696 5092 ft 195 kts 45°
2026-05-05 20:41 51.07109 13.68075 5033 ft 175 kts 42°
2026-05-05 20:41 51.07986 13.69301 4872 ft 162 kts 42°
2026-05-05 20:41 51.08823 13.70457 4613 ft 157 kts 42°
2026-05-05 20:41 51.09642 13.71584 4314 ft 154 kts 42°
2026-05-05 20:42 51.10447 13.72691 4000 ft 152 kts 43°
2026-05-05 20:42 51.11241 13.73781 3687 ft 150 kts 42°